Location: Carnières
(50.1682°N, 3.3474°E)
Time: 04:18:38
(UTC+00:00)

SL-16 R/B - Pass Details

Date: 11 August 2024
Orbit: 842 x 845 km, 71.0° (Epoch: 16 September)

Event Time Altitude Azimuth Distance (km) Brightness Sun altitude
Exits shadow 00:42:50 40° 249° (WSW) 1,219 2.7 -23.7°
Maximum altitude 00:44:35 57° 304° (NW) 988 2.6 -23.6°
Drops below altitude 10° 00:50:12 10° 24° (NNE) 2,476 5.7 -23.4°
Sets 00:52:42 0° 28° (NNE) 3,415 6.7 -23.3°
